Temp
58 57 57 57 57 56 55 65 56 72 75 59 63 58 66 59 68 69 66 65 65 63 64 61 60 60 60 62 61 55 56 53 47 47 50 52 48 49 50 36 38 38 32 38
58 57 57 57 56 55 60 61 63 71 70 54 56 64 66 65 65 66 65 64 66 66 62 55 61 60 57 57 58 55 56 50 43 39 43 47 44 49 50 48 42 36 31 41
57 57 56 56 56 56 55 61 55 61 63 62 60 60 62 60 65 64 68 66 67 63 60 63 57 58 56 55 58 56 56 52 50 42 45 50 42 45 47 47 33 35 40 49
57 57 56 56 56 56 55 60 57 59 52 56 59 61 61 60 59 63 66 61 62 61 54 58 58 60 54 55 56 53 53 48 53 55 55 53 51 50 46 40 49 41 50 48
58 57 56 56 56 55 56 58 56 58 54 58 58 55 56 57 61 62 59 58 62 63 57 60 58 61 58 56 52 53 54 47 49 48 55 54 49 51 50 48 48 49 50 49
58 57 56 55 55 54 58 63 63 59 54 56 54 55 57 59 62 64 66 64 60 59 62 63 61 62 61 60 54 51 50 46 45 40 50 47 42 49 50 49 51 50 43 52
58 57 56 56 55 53 58 64 63 56 49 51 55 59 60 59 61 59 64 64 59 58 64 63 61 60 59 59 58 58 51 48 43 35 44 33 52 54 54 53 55 54 53 55
58 57 57 56 55 54 53 60 59 57 49 56 56 57 58 59 59 58 60 60 59 62 58 51 49 48 50 54 56 53 53 49 36 34 37 48 54 54 49 47 50 56 53 54
58 57 57 56 56 54 53 56 59 54 51 50 60 57 58 52 54 54 57 57 60 57 52 45 39 38 47 44 43 50 51 49 38 34 31 33 48 50 52 51 41 55 54 52
58 57 57 56 55 55 53 54 58 53 49 56 57 53 53 59 56 52 55 51 50 53 42 39 38 42 53 43 42 36 37 35 33 35 33 44 55 52 52 38 43 54 55 52
57 57 57 56 56 55 52 53 57 53 49 54 59 60 56 55 57 49 52 49 49 42 39 40 43 43 49 49 52 42 38 34 31 33 32 34 52 48 46 51 50 55 54 53
56 56 56 56 56 55 54 49 56 55 48 50 56 58 60 58 55 55 54 53 50 50 43 45 47 43 47 47 42 50 40 46 39 42 43 54 53 52 54 54 53 51 51 51
56 55 55 55 55 55 53 49 51 49 46 49 50 51 59 61 60 62 50 52 58 54 52 47 43 41 47 40 44 49 49 55 46 49 54 56 56 57 57 55 54 55 54 52
56 55 55 55 54 54 53 46 49 48 47 40 46 60 56 61 61 59 58 55 55 53 49 42 40 38 49 44 48 48 51 52 49 49 53 56 59 58 59 58 57 54 55 55
56 55 55 54 54 53 49 45 46 47 44 39 44 51 55 57 56 56 57 55 53 47 42 40 39 46 46 46 45 46 53 51 47 48 58 55 54 55 58 55 54 57 56 55
55 55 54 53 53 50 43 35 44 45 46 41 37 48 47 49 50 52 52 52 51 48 45 44 47 48 46 36 38 53 56 59 59 57 57 58 58 56 56 57 57 59 56 56
55 54 53 53 52 46 39 36 43 48 46 39 33 36 44 47 48 47 48 50 45 47 44 43 44 44 44 35 40 52 54 57 59 57 53 51 54 53 58 58 57 57 56 56
55 54 53 51 49 45 39 43 47 49 43 42 32 33 38 46 39 38 45 39 40 40 41 41 43 45 43 37 47 52 55 57 58 58 59 58 58 56 54 55 54 53 53 54
55 53 49 44 39 34 39 48 48 47 41 32 33 33 31 42 39 37 38 40 34 39 36 39 43 40 36 43 47 50 54 54 55 57 55 52 51 50 52 51 50 48 48 49
49 45 35 30 34 47 45 39 36 37 36 36 33 39 32 40 36 35 35 35 35 32 37 42 36 39 49 50 50 52 53 54 55 47 44 47 46 47 47 47 49 48 47 48
38 32 32 37 46 38 34 30 31 32 30 32 35 40 33 42 35 34 36 33 34 31 34 34 33 33 43 51 52 56 56 52 50 49 47 46 45 45 45 45 47 47 47 46
37 35 38 37 34 31 29 27 29 29 29 35 34 39 42 38 40 35 34 33 32 28 36 32 28 36 46 49 51 54 56 51 50 50 48 47 48 46 46 45 46 46 47 47
38 34 31 31 29 23 24 21 25 27 33 36 37 37 35 34 36 34 33 31 29 38 30 29 30 41 45 44 48 49 51 50 48 47 48 48 47 46 46 45 46 46 45 46
32 29 24 26 23 26 27 30 32 36 37 37 39 33 33 34 33 32 30 33 33 28 26 27 36 42 43 46 48 47 46 46 46 46 47 46 46 45 45 44 45 46 46 47
30 30 25 26 33 35 36 39 38 39 41 40 36 34 35 33 32 32 32 29 26 27 28 35 43 46 46 46 46 45 45 45 45 46 45 45 45 43 43 44 43 43 45 44
31 31 30 32 33 33 38 38 33 41 41 41 38 32 31 31 31 29 28 28 25 29 37 43 45 46 46 46 46 46 47 46 45 45 45 45 44 43 43 43 42 44 42 41
28 29 32 36 36 35 37 38 38 43 38 33 32 27 27 32 28 28 31 28 35 40 41 43 45 46 45 45 46 46 46 45 44 44 44 44 44 43 41 40 41 41 40 40
MSLP
1019.31 1019.39 1019.46 1019.43 1019.33 1019.12 1019.12 1017.41 1016.45 1015.68 1015.71 1015.98 1014.97 1014.44 1013.41 1013.15 1012.64 1012.83 1012.79 1012.56 1012.01 1011.73 1011.62 1012.21 1012.67 1012.93 1013.92 1014.64 1015.11 1015.50 1015.57 1015.72 1016.57 1017.10 1017.55 1017.76 1018.10 1018.23 1018.04 1018.57 1018.67 1018.16 1017.14 1014.36
1018.93 1019.24 1019.49 1019.32 1019.28 1019.48 1018.78 1017.13 1015.92 1015.85 1015.63 1015.28 1014.70 1013.82 1013.67 1013.62 1013.27 1013.00 1013.14 1012.73 1012.43 1012.16 1012.38 1012.69 1012.72 1013.76 1015.22 1015.53 1015.77 1016.01 1016.03 1016.05 1016.15 1017.07 1017.90 1017.93 1017.75 1017.79 1018.24 1018.59 1018.87 1018.49 1017.51 1014.31
1018.34 1018.71 1019.09 1019.32 1019.45 1019.32 1019.61 1017.27 1016.05 1015.95 1015.88 1014.96 1014.69 1013.80 1013.01 1013.47 1013.61 1013.43 1013.08 1012.90 1012.76 1012.73 1012.82 1012.84 1013.16 1014.14 1015.53 1016.18 1016.47 1016.69 1016.46 1015.95 1015.75 1015.86 1015.96 1016.30 1017.16 1017.35 1017.80 1018.50 1018.93 1017.74 1016.12 1013.84
1017.80 1018.22 1018.76 1018.88 1019.28 1019.48 1019.83 1017.48 1015.72 1015.33 1015.48 1015.07 1014.58 1014.30 1013.33 1012.90 1013.31 1013.73 1013.30 1013.06 1013.07 1013.16 1013.22 1013.02 1013.29 1014.07 1015.73 1016.48 1016.75 1017.08 1016.95 1016.34 1015.50 1015.13 1014.93 1015.45 1016.08 1016.34 1017.02 1017.57 1016.67 1016.38 1014.58 1013.77
1017.38 1017.72 1018.08 1018.52 1018.99 1019.28 1019.25 1017.07 1016.15 1015.70 1015.20 1014.95 1014.65 1014.32 1013.51 1013.08 1012.95 1013.07 1013.29 1013.36 1013.14 1013.20 1013.18 1013.07 1012.88 1013.41 1014.46 1015.34 1016.75 1016.94 1016.79 1016.47 1015.77 1015.28 1015.14 1014.98 1015.12 1015.33 1015.46 1015.65 1015.32 1015.20 1014.46 1013.43
1016.29 1017.02 1017.33 1017.92 1018.49 1019.18 1017.87 1016.58 1016.17 1015.75 1015.25 1015.01 1014.92 1014.22 1013.61 1013.18 1013.15 1012.98 1012.76 1012.99 1013.43 1013.56 1013.38 1013.29 1013.30 1013.23 1013.74 1014.46 1015.48 1016.54 1016.77 1016.94 1016.50 1015.70 1015.32 1015.15 1014.64 1013.68 1013.55 1013.66 1013.53 1013.60 1013.79 1012.21
1015.41 1016.05 1016.69 1017.14 1017.64 1018.10 1017.70 1016.13 1015.90 1015.88 1015.31 1015.19 1014.43 1013.86 1013.53 1013.38 1013.32 1013.19 1012.94 1013.16 1013.64 1014.16 1013.90 1013.84 1013.54 1013.86 1014.08 1014.38 1014.89 1015.43 1016.24 1016.90 1017.02 1016.77 1016.23 1015.06 1012.79 1011.99 1012.08 1012.26 1012.22 1012.49 1012.34 1011.97
1014.39 1015.24 1016.00 1016.56 1016.98 1017.39 1017.82 1016.69 1016.24 1015.61 1015.03 1014.59 1014.41 1013.99 1013.77 1013.81 1013.71 1013.72 1013.58 1013.94 1014.58 1014.45 1014.67 1014.66 1014.55 1014.83 1014.96 1014.56 1014.97 1015.48 1016.25 1016.95 1017.95 1017.53 1016.37 1014.30 1012.76 1012.04 1012.19 1012.21 1011.55 1011.04 1011.64 1011.87
1013.29 1014.15 1015.02 1015.74 1016.29 1017.06 1017.75 1016.89 1016.32 1015.92 1015.24 1014.32 1013.87 1013.70 1013.77 1013.92 1013.91 1014.09 1014.11 1015.02 1015.02 1015.22 1015.40 1015.64 1015.24 1014.71 1014.37 1014.33 1015.41 1016.20 1016.79 1017.29 1018.06 1018.01 1016.92 1014.76 1012.06 1011.80 1011.76 1012.00 1011.55 1011.07 1011.44 1011.76
1011.95 1012.99 1014.03 1014.99 1015.60 1016.17 1017.03 1016.66 1016.43 1016.12 1015.21 1014.08 1013.69 1013.28 1013.24 1013.60 1013.82 1013.80 1014.36 1015.39 1015.95 1016.14 1016.03 1016.43 1015.97 1014.86 1013.96 1014.00 1014.83 1016.29 1017.10 1018.04 1018.04 1017.66 1016.28 1013.47 1011.93 1011.89 1012.11 1012.11 1011.39 1010.86 1011.18 1011.57
1010.88 1011.90 1012.95 1013.99 1014.96 1015.67 1016.18 1015.91 1016.15 1015.88 1015.31 1014.33 1013.66 1013.21 1012.94 1013.24 1013.53 1013.88 1014.63 1015.67 1015.94 1016.50 1016.66 1016.35 1015.72 1014.71 1013.69 1013.40 1013.15 1014.06 1015.14 1016.51 1017.08 1017.25 1016.11 1013.46 1011.57 1012.25 1011.98 1010.96 1010.78 1010.73 1010.82 1011.19
1009.97 1010.92 1011.97 1012.96 1013.92 1015.05 1015.83 1015.77 1015.61 1016.22 1016.23 1015.30 1014.37 1013.49 1013.01 1012.92 1013.48 1013.67 1014.22 1014.05 1014.44 1014.96 1015.45 1015.36 1014.73 1014.34 1013.35 1012.86 1012.62 1012.19 1013.21 1013.03 1014.00 1014.20 1012.83 1011.34 1010.98 1010.61 1010.48 1010.52 1010.84 1010.91 1010.90 1010.96
1009.31 1010.04 1010.87 1012.05 1012.99 1014.37 1015.10 1015.32 1015.68 1016.50 1016.48 1015.60 1014.69 1013.45 1012.83 1012.94 1013.07 1013.10 1013.95 1014.22 1014.08 1014.34 1014.44 1014.89 1014.77 1014.38 1013.15 1012.74 1011.87 1011.70 1011.13 1011.22 1011.57 1011.86 1010.85 1010.52 1010.35 1010.11 1010.28 1010.35 1010.50 1010.57 1010.70 1010.87
1008.07 1008.99 1009.84 1010.99 1012.19 1013.44 1014.65 1015.41 1015.47 1015.77 1015.87 1015.54 1013.26 1012.36 1012.51 1012.31 1012.80 1013.19 1013.43 1013.93 1014.22 1014.66 1015.04 1015.37 1015.25 1014.77 1013.23 1012.46 1011.76 1011.25 1010.65 1010.35 1010.43 1010.15 1009.89 1009.81 1009.47 1009.36 1009.36 1009.67 1010.07 1010.33 1010.67 1010.77
1006.88 1007.98 1009.04 1010.22 1011.64 1012.79 1014.17 1015.44 1015.72 1015.81 1015.99 1015.21 1013.99 1013.30 1012.69 1012.56 1012.84 1013.11 1013.25 1013.68 1014.27 1014.88 1015.68 1015.84 1015.44 1014.51 1014.09 1012.93 1012.15 1010.35 1010.04 1009.55 1009.56 1009.01 1008.88 1009.14 1009.32 1009.27 1009.35 1009.82 1010.05 1010.12 1010.18 1010.30
1005.62 1006.89 1008.04 1009.27 1010.90 1012.33 1014.22 1016.00 1016.26 1015.96 1016.12 1015.97 1014.85 1013.84 1013.45 1013.46 1013.41 1013.51 1013.70 1013.79 1013.97 1014.36 1014.90 1015.00 1014.41 1014.09 1014.06 1013.33 1011.01 1009.27 1009.15 1008.77 1008.44 1008.15 1008.58 1008.63 1008.81 1009.07 1009.33 1009.63 1009.65 1009.71 1009.71 1009.99
1004.33 1005.94 1007.17 1008.62 1010.01 1011.46 1013.59 1014.50 1014.03 1014.57 1016.07 1016.01 1015.99 1014.62 1014.02 1013.87 1013.76 1013.87 1014.14 1013.98 1014.12 1014.34 1014.95 1014.60 1014.24 1014.29 1014.42 1012.79 1009.85 1008.94 1008.22 1008.29 1008.22 1008.07 1008.38 1008.49 1008.82 1008.95 1009.10 1009.30 1009.46 1009.62 1009.77 1009.88
1003.08 1004.63 1006.27 1008.07 1010.01 1012.08 1013.69 1014.02 1014.06 1014.51 1015.31 1016.23 1015.87 1014.56 1014.51 1013.97 1013.67 1014.51 1014.67 1014.65 1014.89 1014.92 1014.67 1014.63 1014.03 1013.88 1013.90 1011.22 1008.25 1008.39 1008.55 1008.42 1007.92 1007.86 1008.11 1008.40 1008.63 1008.85 1009.19 1009.38 1009.64 1009.81 1009.89 1010.00
1002.69 1004.40 1006.28 1008.54 1010.69 1012.13 1012.61 1013.46 1014.45 1014.85 1015.31 1015.31 1014.82 1014.00 1013.88 1014.22 1013.98 1014.44 1014.82 1014.67 1015.27 1015.36 1014.79 1014.35 1014.03 1012.61 1010.09 1007.85 1007.88 1007.55 1007.21 1007.18 1007.37 1007.57 1007.87 1008.25 1008.50 1008.86 1009.32 1009.63 1010.03 1010.30 1010.29 1010.37
1003.20 1004.89 1007.86 1009.78 1010.59 1011.04 1012.25 1014.03 1014.78 1015.30 1014.86 1014.68 1013.77 1013.13 1013.49 1013.77 1014.31 1014.70 1014.80 1014.71 1014.57 1014.94 1013.91 1013.59 1012.57 1008.70 1007.37 1007.20 1007.26 1007.05 1006.68 1006.62 1006.92 1007.51 1008.07 1008.41 1008.77 1009.29 1009.74 1010.09 1010.57 1010.84 1010.78 1010.62
1003.59 1006.34 1008.09 1009.15 1010.06 1010.84 1012.48 1013.59 1013.89 1014.37 1014.17 1012.95 1011.96 1011.58 1012.23 1013.13 1013.56 1013.72 1013.91 1014.09 1014.05 1013.91 1012.71 1012.49 1010.48 1006.48 1005.65 1006.25 1006.22 1005.40 1006.08 1006.44 1007.02 1007.50 1007.84 1008.35 1009.06 1009.52 1009.87 1010.49 1010.82 1010.87 1010.93 1010.76
1004.83 1005.98 1007.92 1009.57 1010.18 1010.41 1011.57 1012.43 1012.79 1012.45 1011.26 1010.24 1010.02 1009.69 1010.60 1012.32 1012.71 1013.07 1013.64 1013.58 1013.70 1012.72 1012.24 1011.87 1008.31 1004.90 1004.65 1004.56 1003.99 1004.38 1005.16 1005.93 1006.77 1007.43 1008.09 1008.46 1009.06 1009.49 1009.92 1010.34 1010.85 1010.81 1010.71 1010.48
1005.78 1007.49 1008.14 1008.60 1008.62 1009.30 1009.07 1009.38 1009.81 1009.46 1008.17 1007.42 1008.34 1009.17 1010.71 1012.36 1012.99 1012.99 1013.05 1012.83 1012.41 1011.80 1011.38 1008.47 1005.44 1004.05 1003.71 1004.18 1004.40 1004.02 1004.32 1005.56 1006.69 1007.55 1008.14 1008.46 1009.01 1009.56 1009.84 1010.10 1010.52 1010.63 1010.38 1010.65
1005.99 1006.89 1007.24 1006.83 1006.87 1006.46 1004.97 1004.51 1005.10 1005.81 1006.07 1006.13 1006.95 1009.17 1010.65 1011.60 1012.02 1012.35 1012.21 1011.68 1011.37 1010.41 1008.38 1005.02 1004.75 1003.56 1003.35 1004.15 1004.31 1004.16 1004.71 1005.65 1006.74 1007.49 1008.04 1008.43 1008.87 1009.30 1009.62 1009.86 1010.39 1010.17 1010.13 1010.32
1005.08 1005.36 1005.15 1004.97 1003.93 1003.57 1003.65 1003.55 1004.70 1005.50 1005.66 1005.52 1007.42 1009.25 1010.15 1010.70 1011.02 1010.87 1010.42 1010.46 1008.87 1006.46 1003.90 1003.03 1002.17 1002.20 1002.50 1003.80 1004.02 1004.49 1005.23 1005.93 1006.70 1007.48 1007.97 1008.39 1008.71 1009.07 1009.39 1009.75 1010.05 1009.87 1010.02 1009.90
1004.32 1004.10 1003.82 1003.53 1003.48 1003.38 1003.11 1003.20 1004.11 1005.07 1005.22 1006.31 1007.11 1008.41 1009.32 1009.20 1009.01 1009.01 1007.92 1006.97 1004.98 1003.40 1002.95 1001.95 1001.39 1001.67 1002.41 1003.48 1004.22 1004.79 1005.26 1005.79 1006.62 1007.28 1007.71 1008.29 1008.62 1008.81 1009.01 1009.34 1009.37 1009.46 1009.66 1009.89
1004.01 1003.69 1003.23 1002.63 1002.62 1002.44 1001.96 1002.59 1003.30 1004.38 1004.81 1005.10 1006.17 1006.69 1006.82 1007.19 1007.34 1006.36 1005.12 1003.54 1002.55 1002.41 1001.82 1001.83 1002.03 1001.67 1002.64 1003.62 1004.31 1004.86 1005.33 1005.89 1006.45 1006.99 1007.71 1008.09 1008.24 1008.50 1008.79 1008.98 1009.02 1009.04 1009.21 1009.55
Wind_Speed
9 7 5 6 8 10 5 4 3 3 3 3 4 8 9 1 0 2 3 4 6 6 3 5 4 1 5 3 7 4 0 3 2 2 4 3 1 5 2 4 2 3 4 10
11 9 7 5 5 7 6 3 3 2 3 5 8 9 4 4 3 5 3 5 5 2 3 3 6 5 1 2 3 1 3 4 2 1 1 1 3 5 4 3 3 5 4 8
14 11 9 7 6 5 3 3 2 3 3 5 6 8 12 11 6 10 10 8 7 5 6 6 1 3 3 1 2 2 2 3 5 3 1 5 4 4 5 5 3 5 9 11
16 13 11 9 7 5 3 3 3 1 4 7 10 9 6 6 11 6 5 5 10 7 6 8 7 4 4 3 4 2 2 4 6 8 3 4 5 7 9 11 16 7 13 9
18 16 15 12 8 5 4 2 3 2 3 4 6 10 6 10 8 9 7 11 8 11 12 10 6 8 7 6 5 5 4 4 2 5 8 8 6 10 10 16 17 15 16 22
22 20 17 14 12 8 4 3 0 2 4 4 5 8 11 8 9 9 11 7 7 12 7 4 5 5 2 4 8 7 7 3 3 5 4 2 7 17 16 7 8 9 9 12
24 23 20 19 17 16 4 3 1 3 3 7 9 7 9 13 11 10 5 5 5 2 2 3 2 4 3 4 6 7 5 5 1 4 4 8 11 5 4 10 11 10 9 11
26 25 23 22 19 16 5 2 2 3 4 7 12 13 10 6 7 9 8 2 2 4 2 1 1 2 4 7 7 6 4 4 1 4 6 12 14 7 6 6 6 8 8 5
28 26 25 23 20 16 5 5 2 2 1 6 12 10 11 7 7 6 6 3 2 3 2 2 6 6 6 4 3 6 6 1 4 3 5 7 0 3 2 4 6 6 4 5
29 28 27 25 22 19 7 4 7 2 3 4 3 7 6 6 7 3 6 5 1 3 3 3 4 6 5 7 8 6 3 2 7 6 6 8 4 7 3 4 8 7 5 3
30 29 28 26 24 21 11 3 4 4 3 5 5 5 5 2 8 5 5 5 3 1 5 5 4 5 6 11 7 9 10 9 5 3 4 10 7 4 8 5 2 6 5 5
31 30 30 28 26 23 17 4 5 2 2 3 5 7 6 1 3 3 7 4 5 6 4 4 4 5 4 5 7 5 7 9 8 11 9 2 7 2 6 3 3 2 3 1
31 32 31 30 27 25 18 3 5 3 4 6 10 9 7 6 5 2 4 2 2 2 2 1 2 5 1 6 6 7 4 5 4 3 8 10 9 9 8 7 7 6 4 3
34 34 32 31 29 26 19 2 3 0 3 4 4 7 17 5 8 8 4 2 2 4 2 1 2 3 2 3 4 5 3 3 7 6 7 9 10 6 8 8 4 0 4 4
32 33 32 31 29 26 11 3 2 2 1 2 2 3 2 5 5 8 7 6 5 3 2 2 4 3 2 3 2 9 6 6 5 6 5 5 2 4 5 3 2 5 7 7
35 36 35 32 29 26 7 2 4 2 1 2 2 1 3 2 3 7 8 7 4 3 4 4 4 1 3 4 8 12 14 12 9 13 6 6 5 3 2 5 7 8 5 5
35 34 33 32 33 14 6 6 1 17 3 1 2 5 2 3 5 3 3 3 1 3 2 4 3 1 1 4 19 6 6 5 8 4 2 5 5 6 5 5 6 6 6 6
38 37 35 33 29 19 4 1 7 13 4 3 4 4 3 5 4 3 1 2 1 1 2 1 3 3 3 12 5 16 18 20 21 18 14 10 8 5 5 5 6 7 7 7
31 30 35 16 5 4 5 14 10 3 3 4 4 5 4 3 1 3 1 2 3 1 3 4 4 7 14 7 7 6 10 15 15 15 9 4 3 2 5 4 6 6 7 7
40 22 6 4 6 27 17 5 3 3 2 3 4 3 4 3 2 1 3 1 3 4 6 4 7 18 18 13 6 7 8 9 8 6 4 5 4 4 5 5 5 5 6 7
5 5 4 6 24 5 4 5 5 4 5 6 6 10 7 3 5 3 2 3 3 4 5 8 6 9 9 17 25 27 15 9 6 5 2 3 2 1 0 3 4 5 7 7
8 10 8 4 3 4 6 6 4 6 8 7 7 12 6 3 1 3 4 4 3 6 4 3 9 4 9 16 22 18 17 11 9 6 6 5 4 3 1 2 5 5 7 7
6 5 3 4 4 6 11 13 7 8 7 7 9 13 5 3 2 3 3 7 7 4 5 8 5 4 5 7 4 5 7 11 10 8 6 5 5 2 3 2 4 6 5 7
4 5 8 6 6 8 9 7 5 4 7 14 13 7 4 3 4 3 5 5 4 6 9 9 5 9 9 7 7 8 11 10 9 8 7 6 5 5 2 2 4 3 5 9
4 5 7 8 5 3 8 7 7 5 11 13 11 5 3 4 4 5 5 7 9 10 8 4 6 9 14 12 11 10 11 10 8 7 6 5 4 4 4 4 2 4 4 7
4 4 5 3 5 5 10 8 9 8 11 10 3 6 5 6 4 8 10 7 9 4 5 4 4 11 13 12 10 10 9 9 7 6 6 6 5 5 5 3 4 4 2 6
3 3 1 4 3 7 6 10 8 11 14 6 6 9 9 5 6 8 6 6 2 4 2 1 4 11 12 12 10 8 8 7 7 6 4 3 3 2 3 5 6 4 3 5
Wind_Direction
221 232 259 291 310 321 286 281 216 122 231 199 211 232 246 306 357 121 301 290 316 306 191 222 261 289 79 45 154 183 169 328 257 104 80 65 340 317 238 126 247 244 160 274
211 226 250 269 295 325 306 241 159 158 233 211 235 233 280 1 256 199 233 243 240 271 294 258 236 88 352 68 236 215 156 234 261 178 4 54 218 186 256 73 67 232 145 264
204 209 223 252 272 288 290 286 199 135 195 286 297 264 216 223 213 271 253 269 259 236 248 267 321 145 143 129 312 39 16 275 247 238 114 131 191 216 197 189 156 236 221 263
199 201 212 220 238 264 282 236 238 84 197 229 231 260 326 233 212 218 274 249 246 235 243 250 210 208 135 184 161 245 245 249 248 265 295 178 222 224 191 201 228 218 258 255
202 197 202 209 212 221 256 248 225 170 321 351 258 206 229 241 247 205 204 250 267 230 248 245 275 215 162 184 151 202 203 262 297 272 263 255 239 243 226 217 242 258 266 280
199 196 195 198 198 202 229 238 191 314 172 195 210 227 229 235 241 251 254 248 259 258 272 307 20 35 19 87 148 192 159 219 186 254 269 329 261 236 228 211 210 204 221 239
200 195 195 197 197 204 331 284 228 196 229 207 216 241 237 236 234 256 260 228 219 54 319 256 70 49 335 264 225 182 189 207 278 252 320 249 245 186 221 210 245 220 254 271
199 195 197 203 202 206 232 287 247 231 248 229 227 245 247 230 268 258 247 88 49 295 244 1 234 241 261 223 221 197 229 197 214 191 209 281 293 252 193 180 295 207 228 267
198 195 196 199 201 200 207 249 250 268 246 229 239 225 224 226 234 228 181 85 360 8 182 159 207 210 205 191 92 12 308 298 148 176 197 232 340 152 143 129 259 145 168 232
196 195 195 197 197 190 191 239 197 260 230 241 202 208 217 194 219 224 147 124 138 353 143 169 209 238 269 201 184 169 162 210 211 228 244 262 248 152 165 179 238 175 186 211
195 195 195 195 194 190 184 211 212 207 235 265 237 229 190 267 212 196 122 94 211 98 181 180 206 245 231 235 218 169 160 167 189 192 241 269 139 83 187 193 144 173 195 192
195 194 194 194 192 190 185 215 185 136 233 327 328 305 286 79 357 213 178 188 143 175 166 215 195 226 228 208 246 177 194 177 181 183 208 248 201 255 195 126 142 223 184 229
199 195 192 192 188 186 185 182 146 118 232 277 259 229 233 205 202 321 172 265 191 208 101 213 190 233 224 200 224 259 219 197 204 191 223 245 207 231 234 183 206 226 238 249
198 195 191 189 185 180 174 175 157 302 162 233 262 227 219 167 188 198 213 89 47 65 53 119 195 195 232 244 261 254 213 168 176 245 265 303 294 260 221 197 142 111 272 257
198 193 189 186 181 171 147 88 359 7 211 244 281 323 277 154 170 206 191 183 157 149 132 197 226 249 296 229 262 241 211 199 199 232 190 199 260 101 89 114 253 246 250 268
194 192 187 179 168 142 103 62 267 192 232 314 261 81 195 120 208 206 202 202 193 171 171 193 226 132 181 263 259 232 216 236 236 254 260 271 279 273 249 275 271 270 256 257
193 187 180 171 157 143 148 182 163 168 157 86 320 272 114 167 172 176 206 161 165 145 201 232 175 194 184 253 246 260 300 266 245 288 249 268 265 267 281 287 345 349 323 304
184 179 171 156 128 101 103 98 138 137 142 169 225 245 194 202 150 141 100 105 97 273 220 281 188 160 180 253 232 222 234 249 263 264 262 262 269 292 357 338 319 312 310 315
184 161 127 109 79 128 128 135 147 78 160 184 201 202 188 183 53 107 129 165 143 57 228 212 181 202 221 218 201 207 213 221 238 241 257 275 250 243 272 347 353 328 313 311
128 120 90 146 165 130 105 68 131 163 222 235 231 232 157 162 167 182 109 154 169 197 217 173 228 243 240 231 230 241 233 229 218 155 210 224 235 54 21 343 327 311 301 299
70 117 92 128 131 89 91 136 176 158 211 209 193 188 133 220 174 149 218 165 159 214 210 183 239 254 207 211 228 231 217 168 175 180 161 60 92 149 337 298 298 299 294 288
104 99 84 113 120 107 137 160 166 212 215 183 191 177 132 147 131 128 178 170 168 232 134 213 250 170 193 214 227 228 215 171 171 160 165 176 180 170 189 266 275 282 288 300
69 77 126 174 144 148 170 169 187 202 193 166 168 156 111 103 238 104 179 197 204 130 211 236 224 249 214 154 177 145 137 146 134 143 160 166 179 201 237 270 279 306 314 299
118 161 156 204 174 204 200 183 152 176 153 148 146 113 121 134 158 156 196 198 170 224 235 223 197 216 167 179 167 142 136 135 142 160 171 172 186 203 187 246 268 312 304 308
146 155 193 200 209 222 185 158 129 148 157 144 123 87 126 151 179 192 188 191 231 219 229 199 196 194 163 170 163 154 153 152 153 161 163 178 194 205 224 236 236 284 308 320
157 195 165 200 192 192 175 153 134 152 144 130 112 133 177 187 202 193 208 208 220 239 213 243 155 152 157 161 157 156 153 154 147 152 166 190 205 225 230 227 239 250 265 288
167 200 196 240 215 180 157 143 140 155 156 162 150 171 189 116 213 206 208 221 152 205 165 144 164 154 151 148 155 150 135 135 148 154 179 196 207 243 258 261 263 199 219 267